Terminal Aerodrome Forecast
Issued by NWS Memphis, TN

Home | Current Version | Previous Version | Text Only | Print | Product List | Glossary On
Versions: 1 2 3 4 5 6 7 8 9 10 11 12 13 14 15 16 17 18 19 20 21
000
FTUS44 KMEG 210228 AAA
TAFJBR
TAF AMD
KJBR 210228Z 2102/2124 VRB03KT P6SM SCT028 BKN050
      TEMPO 2103/2107 BKN028
     FM211700 13007KT P6SM SCT050=

USA.gov is the U.S. government's official web portal to all federal, state and local government web resources and services.